CENTISPACE-1 S9 (62578 NORAD) Tracking and Keplerian Element Data

This shows tracking and keplerian element data for the satellite.

Feedback or suggestion? Click here.




ElementValue
Catalog62578
NameCENTISPACE-1 S9
Epoch Orbit326
Epoch Day35.24603433
Epoch Year2025
RAAN37.8158
Inclination54.9821
Eccentricity0.001637
Argument of Perigee359.2123
Mean Anonmoly0.8849
Mean Motion14.76820397
Decay Rate3.915E-05
L11 62578U 25007D 25035.24603433 .00003915 00000+0 58224-3 0 9993
L22 62578 54.9821 37.8158 0016370 359.2123 0.8849 14.76820397 3260



Live tracking and technical data element details for CENTISPACE-1 S9 (NORAD 62578). CENTISPACE-1 S9 can be tracked NOW for your location showing map with azimuth and elevation plus other details from your city location.







IsCatalogInMostPopularTable: catalog: 62578, numindb: 14
Update: records affected: 1



GetName: 62578 CENTISPACE-1 S9

Hit Count: updated at: Mon, 19 May 2025 01:58:12 GMT